User: anonymous   Login
Location: downtown San Diego
(32.7310°N, 117.1990°W)
Time: 06:38:54
(UTC-07:00)
Language:

Cosmos 1500 Rocket - Orbit

View from above orbital plane
View from above orbital plane
View from above satellite
View from above satellite

Ground track
Ground track

The orbit data is extracted from the following two-line orbital elements,

1 14373U 83099B   19079.77820310  .00000061  00000-0  45377-5 0  9999
2 14373  82.5441   4.9274 0018598 269.5184 120.2497 14.83753272916010
Epoch (UTC): 20 March 2019 18:40:36
Eccentricity: 0.0018598
inclination: 82.5441°
perigee height: 604 km
apogee height: 630 km
right ascension of ascending node: 4.9274°
argument of perigee: 269.5184°
revolutions per day: 14.83753272
mean anomaly at epoch: 120.2497°
orbit number at epoch: 91601

The dashed part of the orbit path shows where the satellite is in the earth's shadow,  

DLR